Weather History for Andover, NJ

Change the Weather History Date:

Sunday, September 29, 2013

  Actual Average (KFWN) Record (KFWN)
Temperature  
Mean Temperature 58 °F -  
Max Temperature 73 °F 67 °F 86 °F (1948)
Min Temperature 45 °F 43 °F 28 °F (1957)
Degree Days  
Heating Degree Days 7    
Growing Degree Days 8 (Base 50)    
Moisture  
Dew Point 50 °F    
Average Humidity 81    
Maximum Humidity 97    
Minimum Humidity 51    
Precipitation  
Precipitation 0.00 in - - ()
Sea Level Pressure  
Sea Level Pressure 30.17 in    
Wind  
Wind Speed 0 mph (NNE)    
Max Wind Speed 4 mph    
Max Gust Speed -    
Averages and records for this station are not official NWS values.
T = Trace of Precipitation, MM = Missing Value Source: NWS Daily Summary

Daily Weather History Graph

Daily Weather History Graph

Search for Another Location

Airport:

Trip Planner

Search our weather history database for the weather conditions in past years. The results will help you decide how hot, cold, wet, or windy it might be!

Date:

Astronomy

Sep. 29, 2013 Rise Set
Actual Time 6:53 AM EDT 6:43 PM EDT
Civil Twilight 6:26 AM EDT 7:11 PM EDT
Nautical Twilight 5:54 AM EDT 7:43 PM EDT
Astronomical Twilight 5:22 AM EDT 8:15 PM EDT
Moon 1:30 AM EDT (9/29) 3:40 PM EDT (9/29)
Length of Visible Light 12h 44m
Length of Day
11h 50m
Waning Crescent, 27% of the Moon is Illuminated
Sep 29
Waning Crescent
Oct 4
New
Oct 11
First Quarter
Oct 18
Full
Oct 26
Last Quarter

Hourly Weather History & Observations

Time (EDT) Temp. Dew Point Humidity Pressure Visibility Wind Dir Wind Speed Gust Speed Precip Events Conditions
12:54 AM 50.0 °F 48.0 °F 93% 30.25 in - Calm Calm - N/A   Unknown
1:54 AM 48.9 °F 46.9 °F 93% 30.25 in - Calm Calm - N/A   Unknown
2:54 AM 48.0 °F 45.0 °F 89% 30.23 in - Calm Calm - N/A   Unknown
3:54 AM 48.0 °F 45.0 °F 89% 30.22 in - Calm Calm - N/A   Unknown
4:54 AM 46.0 °F 44.1 °F 93% 30.21 in - Calm Calm - N/A   Unknown
5:54 AM 46.9 °F 45.0 °F 93% 30.20 in - Calm Calm - N/A   Unknown
6:54 AM 45.0 °F 44.1 °F 97% 30.22 in - Calm Calm - N/A   Unknown
7:54 AM 46.0 °F 45.0 °F 96% 30.23 in - Calm Calm - N/A   Unknown
8:54 AM 52.0 °F 51.1 °F 97% 30.23 in - NE 3.5 mph - N/A   Unknown
9:54 AM 60.1 °F 53.1 °F 78% 30.23 in - North 3.5 mph - N/A   Unknown
10:54 AM 64.9 °F 52.0 °F 63% 30.21 in - North 3.5 mph - N/A   Unknown
11:54 AM 66.0 °F 52.0 °F 60% 30.19 in - Calm Calm - N/A   Unknown
12:54 PM 66.0 °F 51.1 °F 59% 30.17 in - Calm Calm - N/A   Unknown
1:54 PM 71.1 °F 52.0 °F 51% 30.15 in - Variable 3.5 mph - N/A   Unknown
2:54 PM 70.0 °F 51.1 °F 51% 30.13 in - Calm Calm - N/A   Unknown
3:54 PM 68.0 °F 51.1 °F 55% 30.11 in - Calm Calm - N/A   Unknown
4:54 PM 64.9 °F 55.0 °F 70% 30.09 in - Calm Calm - N/A   Unknown
5:54 PM 66.0 °F 55.0 °F 68% 30.09 in - Calm Calm - N/A   Unknown
6:54 PM 59.0 °F 55.0 °F 87% 30.10 in - Calm Calm - N/A   Unknown
7:54 PM 55.9 °F 53.1 °F 90% 30.11 in - Calm Calm - N/A   Unknown
8:54 PM 55.9 °F 53.1 °F 90% 30.11 in - Calm Calm - N/A   Unknown
9:54 PM 54.0 °F 51.1 °F 90% 30.12 in - Calm Calm - N/A   Unknown
10:54 PM 53.1 °F 51.1 °F 93% 30.11 in - Calm Calm - N/A   Unknown
11:54 PM 51.1 °F 50.0 °F 96% 30.10 in - Calm Calm - N/A   Unknown